Friday Harbor, WA

10:52 PM PST on December 16, 2017 (GMT -0800)
Friday Harbor

Weather History for KFHR - January, 2014

Change the Weather History Date:

Thursday, January 23, 2014

  Actual Average Record
Temperature  
Mean Temperature 42 °F -  
Max Temperature 46 °F 44 °F 55 °F (2005)
Min Temperature 37 °F 36 °F 23 °F (2008)
Degree Days  
Heating Degree Days 24    
Moisture  
Dew Point 38 °F    
Average Humidity 88    
Maximum Humidity 97    
Minimum Humidity 71    
Precipitation  
Precipitation 0.00 in - - ()
Sea Level Pressure  
Sea Level Pressure 30.47 in    
Wind  
Wind Speed 4 mph (NNW)    
Max Wind Speed 8 mph    
Max Gust Speed 17 mph    
Visibility 10 miles    
Events      
Averages and records for this station are not official NWS values.
T = Trace of Precipitation, MM = Missing Value Source: NWS Daily Summary

Daily Weather History Graph

Daily Weather History Graph

Search for Another Location

Airport or City:

Trip Planner

Search our weather history database for the weather conditions in past years. The results will help you decide how hot, cold, wet, or windy it might be!

Date:

Astronomy

Jan. 23, 2014 Rise Set
Actual Time 7:51 AM PST 4:56 PM PST
Civil Twilight 7:17 AM PST 5:31 PM PST
Nautical Twilight 6:38 AM PST 6:09 PM PST
Astronomical Twilight 6:01 AM PST 6:46 PM PST
Moon 12:09 AM PST (1/23) 10:52 AM PST (1/23)
Length of Visible Light 10h 14m
Length of Day
9h 04m
Waning Gibbous, 54% of the Moon is Illuminated
Jan 23
Waning Gibbous
Jan 23
Last Quarter
Jan 30
New
Feb 6
First Quarter
Feb 14
Full

Hourly Weather History & Observations

Time (PST) Temp. Windchill Dew Point Humidity Pressure Visibility Wind Dir Wind Speed Gust Speed Precip Events Conditions
12:53 AM 41.0 °F - 39.0 °F 93% 30.49 in 10.0 mi Calm Calm - N/A   Overcast
1:53 AM 41.0 °F 37.1 °F 37.9 °F 89% 30.48 in 10.0 mi North 5.8 mph - N/A   Overcast
2:27 AM 42.1 °F 40.2 °F 37.9 °F 85% 30.48 in 10.0 mi Variable 3.5 mph - N/A   Overcast
2:53 AM 42.1 °F 40.2 °F 39.0 °F 89% 30.48 in 10.0 mi Variable 3.5 mph - N/A   Overcast
3:53 AM 41.0 °F 39.0 °F 37.9 °F 89% 30.48 in 10.0 mi Variable 3.5 mph - N/A   Overcast
4:53 AM 41.0 °F 38.0 °F 37.9 °F 89% 30.48 in 10.0 mi North 4.6 mph - N/A   Overcast
5:53 AM 41.0 °F - 37.9 °F 89% 30.49 in 10.0 mi Calm Calm - N/A   Overcast
6:53 AM 41.0 °F 38.0 °F 37.9 °F 89% 30.49 in 10.0 mi North 4.6 mph - N/A   Overcast
7:53 AM 39.9 °F 35.8 °F 37.9 °F 93% 30.50 in 10.0 mi North 5.8 mph - N/A   Overcast
8:53 AM 39.9 °F 35.8 °F 37.9 °F 93% 30.49 in 10.0 mi North 5.8 mph - N/A   Mostly Cloudy
9:53 AM 42.1 °F 37.7 °F 39.0 °F 89% 30.50 in 10.0 mi North 6.9 mph - N/A   Overcast
10:53 AM 43.0 °F 38.2 °F 37.9 °F 82% 30.50 in 10.0 mi North 8.1 mph - N/A   Mostly Cloudy
11:02 AM 43.0 °F 38.8 °F 37.9 °F 82% 30.50 in 10.0 mi North 6.9 mph - N/A   Scattered Clouds
11:53 AM 45.0 °F 41.8 °F 39.0 °F 80% 30.48 in 10.0 mi Variable 5.8 mph 17.3 mph N/A   Clear
12:53 PM 46.0 °F 42.5 °F 37.9 °F 73% 30.47 in 10.0 mi Variable 6.9 mph - N/A   Clear
1:53 PM 46.9 °F - 37.9 °F 71% 30.45 in 10.0 mi North 6.9 mph - N/A   Clear
2:53 PM 46.0 °F 41.9 °F 37.9 °F 73% 30.44 in 10.0 mi North 8.1 mph - N/A   Clear
3:53 PM 45.0 °F - 37.9 °F 76% 30.43 in 10.0 mi Calm Calm - N/A   Clear
4:53 PM 42.1 °F 39.2 °F 37.0 °F 82% 30.43 in 10.0 mi WNW 4.6 mph - N/A   Clear
5:53 PM 39.0 °F 36.8 °F 36.0 °F 89% 30.44 in 10.0 mi NW 3.5 mph - N/A   Clear
6:02 PM 39.0 °F 36.8 °F 37.0 °F 93% 30.44 in 10.0 mi NW 3.5 mph - N/A   Scattered Clouds
6:11 PM 39.0 °F 35.7 °F 37.0 °F 93% 30.44 in 10.0 mi WNW 4.6 mph - N/A   Mostly Cloudy
6:36 PM 37.9 °F - 37.0 °F 97% 30.44 in 10.0 mi Calm Calm - N/A   Scattered Clouds
6:53 PM 37.9 °F - 36.0 °F 93% 30.44 in 10.0 mi Calm Calm - N/A   Clear
7:53 PM 39.0 °F 36.8 °F 37.0 °F 93% 30.44 in 10.0 mi Variable 3.5 mph - N/A   Clear
8:53 PM 39.9 °F 36.7 °F 37.9 °F 93% 30.45 in 10.0 mi Variable 4.6 mph - N/A   Clear
9:53 PM 39.9 °F - 37.9 °F 93% 30.45 in 10.0 mi Calm Calm - N/A   Clear
10:53 PM 39.9 °F 36.7 °F 37.9 °F 93% 30.45 in 10.0 mi North 4.6 mph - N/A   Clear
11:53 PM 37.0 °F - 36.0 °F 96% 30.46 in 10.0 mi Calm Calm - N/A   Clear